Tracking 19242 objects as of 19-Sep-2018
HD Live streaming from Space Station
objects crossing your sky now

FENGYUN 1C DEB

Track FENGYUN 1C DEB now!
10-day predictions


NORAD ID: 36167
Int'l Code: 1999-025DSQ
Perigee: 717.9 km
Apogee: 841.9 km
Inclination: 98.8 °
Period: 100.3 minutes
Semi major axis: 7150 km
RCS: 0.0111 m2 (small)
Launch date: May 10, 1999
Source: People's Republic of China (PRC)
Launch site: Taiyaun Space Center, China (TSC)

Note: This is SATELLITE DEBRIS
aabbcc
Your satellite tracking list
Your tracking list is empty




NASA's NSSDC Master Catalog

Two Line Element Set (TLE):
1 36167U 99025DSQ 18261.63485461  .00000353  00000-0  13251-3 0  9999
2 36167  98.8482  35.3167 0086643 137.1816 223.6160 14.35696230507756
Source of the keplerian elements: AFSPC